Location: Newark
(48.1383°N, 97.9933°W)
Time: 11:21:37
(UTC+00:00)

X-37B - Visible Passes

Search period start: 20 September 2020 00:00
Search period end: 30 September 2020 00:00
Orbit: 386 x 387 km, 45.0° (Epoch: 18 September)

Date Brightness Start Highest point End Pass type
(mag) Time Alt. Az. Time Alt. Az. Time Alt. Az.
20 Sep 1.2 10:46:57 36° SW 10:47:35 42° S 10:50:37 10° ESE visible
21 Sep 3.1 09:51:10 18° ESE 09:51:10 18° ESE 09:52:09 10° ESE visible
21 Sep 1.9 11:23:27 15° WSW 11:25:21 25° SSW 11:28:02 10° SE visible
22 Sep 2.0 10:27:46 28° SSE 10:27:46 28° SSE 10:29:50 10° SE visible
23 Sep 2.4 11:04:30 17° SSW 11:04:37 17° SSW 11:06:49 10° SSE visible
